Find AMSAT-OSCAR-10

NORAD ID: 14129 Int'l Des: 1983-058 Owner: AMDL Country: D operational
MEOELLIPTICALHEO_ELLIPTICALSEMI_SYNC

現在のビュー

3D地球を読み込み中...

AMSAT-OSCAR-10について

説明を読み込み中...

次回通過

Passes for default location (London). Set your location on the main map for personalized predictions.

高度履歴

Loading altitude history...

軌道要素

1 14129U 83058B 26146.51822513 .00000118 00000-0 00000-0 0 9997
2 14129 25.8989 223.1592 6018314 109.7054 321.9164 2.05869340295046
Epoch: May 26, 2026 • Age: 9 hours

現在のステータス

高度 32954.1 km
速度 2.24 km/s
衛星直下点 -20.62°S, 29.34°W
打ち上げ日 Jun 16, 1983
運用期間 42.9 years
タイプ other

技術仕様

分類 Payload
質量 155.00 kg
乾燥質量 90.00 kg
総質量 155.00 kg
長さ 1.30 m
直径 0.40 m
スパン 1.30 m
形状 Star
製造者 AMDL
バスタイプ AMSAT Phase 3
フェーズステータス In Orbit
所有者/国 AMDL/D

Most Searched